Погода в Филатовском

Россия / Свердловская область     56°50′47″N   62°17′54″E
темп.,
°C
ветер,
м/с
пор.,
м/с
влажн.,
%
обл.,
%
осадки,
мм/ч
давл.,
гПа
погр.,
м
21 января, чт
чт2123:00−18з2397100 0.6 101157
02:00−17з61190100 0.2 1011437
05:00−20з51190100 0.2 1012383
08:00−23з4109298 0.0 1011201
11:00−21з4109190 0.0 1013384
14:00−18з488928 0.0 1013481
17:00−20з349555 0.0 101271
20:00−21з349579 0.0 101367
22 января, пт
пт2223:00−21з369586 0.0 1014123
02:00−21зсз359699 0.0 1014117
05:00−21зсз239899 0.1 101537
08:00−24с339887 0.1 101668
11:00−24ссз359690 0.1 1018240
14:00−24ссз359495 0.0 1019281
17:00−28ссз339562 0.0 102225
20:00−26ссз369766 0.0 1025208
23 января, сб
сб2323:00−28ссз349682 0.1 102872
02:00−32ссз34961 0.0 103157
05:00−35ссз34973 0.0 103443
08:00−37с229694 0.0 103619
11:00−35сз119566 0.0 103752
14:00−32ююв119152 0.0 1037146
17:00−31юв229576 0.0 103666
20:00−31ююв3595100 0.0 1036161
24 января, вс
вс2423:00−29ююв3695100 0.0 1035241
02:00−27юв3698100 0.3 1033256
05:00−26юв3698100 0.6 1033252
08:00−26юв3698100 0.3 1033244
11:00−24юв3696100 0.4 1033262
14:00−22юв4597100 0.1 1032297
17:00−21юв4698100 0.5 1031299
20:00−20юв4798100 0.6 1031269
25 января, пн
пн2523:00−20ююв489798 0.8 1029236
02:00−17ю479798 0.1 1027236
05:00−13ю369699 0.6 1025175
08:00−2юз4996100 0.6 1025328
11:00+1зюз6999100 1.4 1025306
14:00+1з5109398 0.2 1025430
17:000зюз389193 0.2 1026234
20:00−2з399194 0.0 1026213